Weather Roundup
Issued by NWS Chicago, IL

Home | Current Version | Previous Version | Text Only | Print | Product List | Glossary On
Versions: 1 2 3 4 5 6 7 8 9 10 11 12 13 14 15 16 17 18 19 20 21 22 23 24 25 26 27 28 29 30 31 32 33 34 35 36 37 38 39 40 41 42 43 44 45 46 47 48 49 50
713
NZUS59 KLOT 251808
HRRLOT

CHICAGO AREA WEATHER ROUNDUP
NATIONAL WEATHER SERVICE CHICAGO/ROMEOVILLE IL
100 PM CDT WED MAY 25 2016

NOTE: "FAIR" INDICATES FEW OR NO CLOUDS BELOW 12,000 FEET WITH NO
SIGNIFICANT WEATHER AND/OR OBSTRUCTIONS TO VISIBILITY.

* THESE STATIONS ARE NOT UNDER NWS QUALITY CONTROL. THEY ALSO MAY NOT
  REPORT WEATHER SUCH AS PRECIPITATION OR FOG.

ILZ005-006-012>014-019>023-251900-
NORTHEAST ILLINOIS

CITY           SKY/WX    TMP DP  RH WIND       PRES   REMARKS
OHARE          CLOUDY    81  62  52 SE9       29.96F HX  82
6HR MIN TEMP:  69; 6HR MAX TEMP:  81;

MIDWAY         PTSUNNY   85  61  44 S9G16     29.97F HX  85
6HR MIN TEMP:  71; 6HR MAX TEMP:  85;

AURORA         CLOUDY    83  64  52 SE13G22   29.96F HX  84
6HR MIN TEMP:  68; 6HR MAX TEMP:  85;

LANSING*       CLOUDY    82  60  46 S7        29.98F HX  82
JOLIET*        SUNNY     84  64  51 SE7       29.96F HX  85
WAUKEGAN       MOSUNNY   78  65  63 SE12      29.97F HX  80
6HR MIN TEMP:  71; 6HR MAX TEMP:  80;

DUPAGE AIRPORT MOSUNNY   82  61  48 SE10G16   29.95F HX  83
6HR MIN TEMP:  68; 6HR MAX TEMP:  82;

WHEELING         N/A    N/A N/A N/A S10       29.98F
KANKAKEE*      SUNNY    N/A N/A N/A S12       29.97F
MORRIS*        MOSUNNY   86  60  40 SE8       29.95F HX  86
LEWIS AIRPORT* MOSUNNY   83  58  42 S8        29.97F HX  82
$$

WIZ051-052-058>065-066-070>072-251900-
SOUTHEAST WISCONSIN

CITY           SKY/WX    TMP DP  RH WIND       PRES   REMARKS
MILWAUKEE      PTSUNNY   59  52  77 NE13      30.00F
6HR MIN TEMP:  58; 6HR MAX TEMP:  77;

KENOSHA*       MOSUNNY   74  61  63 E14       29.97F
RACINE*        SUNNY     62  51  67 NE8       30.01F
BURLINGTON     MOSUNNY   83  59  44 S8        29.95F HX  82
WAUKESHA       SUNNY     73  61  64 E8        29.99F
WEST BEND      MOSUNNY   70  59  68 NE10      29.99F
$$

INZ001>003-010>013-019-020-251900-
NORTHWEST INDIANA

CITY           SKY/WX    TMP DP  RH WIND       PRES   REMARKS
GARY*          PTSUNNY   84  70  61 S8        29.99F HX  88
MICHIGAN CITY* NOT AVBL
RENSSELAER*    NOT AVBL
VALPARAISO     SUNNY     84  60  44 S12       30.01F HX  84
$$

LMZ740>746-251900-
SOUTHERN LAKE MICHIGAN

STATION/POSITION TIME  SKY/WX   TEMP WIND        PRES    VSBY
                                AIR  DIR/SP/G
                 (UTC)          (F)  (DEG/KT/KT) (MB)    (MI)
HARRISON CRIB    1700            74  130/ 13/ 13   N/A
BURNHAM HARBOR   1800            69   80/  6/  9   N/A
CALUMET HARBOR   1700            79  160/  6/ 10 1015.1R
BURNS HARBOR     1700            79  200/  8/ 13 1016.3S
MICHIGAN CITY    1700            79  150/  8/ 10   N/A
$$

ABBREVIATIONS USED IN REMARKS
   TC - TEMPERATURE IN CELSIUS
  WCI - WIND CHILL INDEX
   HX - HEAT INDEX
  VSB - VISIBILITY
$$




USA.gov is the U.S. government's official web portal to all federal, state and local government web resources and services.